STARLINK-32902, 62898

Orbit data source: Space-Track

STARLINK-32902, 62898 is a payload satellite owned by SpaceX/Seattle (US) in LEO that was launched on Tue, 04 Feb 2025 UTC via an FALCON 9 launch vehicle from the Air Force Eastern Test Range (AFETR). Payload-class satellites include a variety of spacecraft equipped with specific instruments for various scientific and technological missions. These include communications satellites like Starlink; space stations such as the ISS; scientific satellites like the Hubble; Earth observation satellites from companies like Planet Labs, Umbra, and HawkEye 360; GPS; miniature CubeSats for education and research; and military/defense satellites.

Loading next visibility...
Identifier
62898, 2025-024V
Orbit
LEO
Country
Flag of USUS
Related business
Manufacturer
SpaceX/Seattle
Mission
Operational Commercial Communications
Bus & Motor
STARLINK V2M, Unknown motor
Mass
730 kg wet, ~700 kg dry
Launch date (UTC)
2025-02-04 (1 year ago)
Launch vehicle
FALCON 9
Launch site
Air Force Eastern Test Range (AFETR)
Object type
Payload
Rocket body
Debris
Shape & HBR
Box + 2 Pan, 17.7 m
Radar Cross Section
33.884 m², Large (>1 m²)

Expand to show TLE details & history
Last TLE update: 13 hours ago

TLE from 13 hours ago
0 STARLINK-32902
1 62898U 25024V   26129.97713306  .00020476  00000-0  75078-3 0  9991
2 62898  43.0042 338.8463 0001480 271.4216  88.6466 15.27612772 71645
Epoch: 2026-05-09T23:27Z
TLE epoch observation values (Epoch: 2026-05-09T23:27:04.296Z)
Latitude
-0.00002°
Longitude
119.29154°
Altitude
482.703 km
Speed
7.626 km/s
True Right ascension
22h 35m 23s
True Declination
0° 00' 00"
Sunlit
Object was in daylight at epoch
Visualization orbit readout
Latitude
Unknown
Longitude
Unknown
Altitude
Unknown
Speed
Unknown
Apparent Right ascension
Unknown
Apparent Declination
Unknown
Sunlit
N/A
Visualization observer readout
Local Sidereal Time
20:25:19
Azimuth
Unknown
Elevation
Unknown
Doppler factor
Unknown
Orbital elements
Apogee altitude
485.911 km
Perigee altitude
483.88 km
Semi-major axis
6,863.032 km
Eccentricity
0.00015
Inclination
43.0042°
RAAN
338.8463°
Arg. of periapsis
271.4216°
True anomaly
88.66355°
Mean anomaly
88.6466°
Eccentric anomaly
88.65508°
Mean motion
3.81741 °/min
Orbital period
94.3 mins
BSTAR
0.00075078
Loading maneuver chart data...
Computing Atmospheric mass density...
Loading historical data...
Loading historical data...
Loading historical data...
Loading historical data...
Loading historical data...
Loading historical data...
Loading historical data...

Documentation

Showing up to 5 results
|